| time (UTC) | temp C | wind direction | speed KPH | gust KPH | rain 1hr cm | rain 24hr cm | rain mn cm | humidity % | barometer mb |
| 20260901114507 | 2 | 330 | 3.2 | 14.5 | 0.00 | 0.08 | 0.00 | 83 | 1009.6 |
| 20260901113103 | 2 | 4 | 4.8 | 14.5 | 0.00 | 0.08 | 0.00 | 83 | 1009.3 |
| 20260901111654 | 2 | 323 | 6.4 | 14.5 | 0.00 | 0.08 | 0.00 | 83 | 1009.4 |
| 20260901110043 | 2 | 250 | 3.2 | 14.5 | 0.00 | 0.08 | 0.00 | 83 | 1009.2 |
| 20260901104604 | 3 | 346 | 3.2 | 8.0 | 0.00 | 0.15 | 0.00 | 82 | 1008.9 |
| 20260901103051 | 3 | 311 | 4.8 | 11.3 | 0.00 | 0.15 | 0.00 | 82 | 1008.5 |
| 20260901101601 | 3 | 299 | 3.2 | 9.7 | 0.00 | 0.15 | 0.00 | 80 | 1008.5 |
| 20260901100159 | 4 | 346 | 4.8 | 14.5 | 0.00 | 0.15 | 0.00 | 79 | 1008.3 |
| 20260901094552 | 4 | 360 | 4.8 | 16.1 | 0.00 | 0.20 | 0.00 | 78 | 1008.4 |
| 20260901093047 | 4 | 358 | 6.4 | 19.3 | 0.00 | 0.20 | 0.00 | 79 | 1008.3 |
| 20260901091601 | 4 | 26 | 4.8 | 16.1 | 0.00 | 0.20 | 0.00 | 79 | 1007.9 |
| 20260901090050 | 4 | 285 | 6.4 | 12.9 | 0.00 | 0.20 | 0.00 | 80 | 1007.8 |
| 20260901084551 | 4 | 359 | 4.8 | 12.9 | 0.00 | 0.23 | 0.00 | 79 | 1007.7 |
| 20260901083058 | 5 | 335 | 3.2 | 11.3 | 0.00 | 0.23 | 0.00 | 78 | 1007.6 |
| 20260901081559 | 5 | 39 | 3.2 | 14.5 | 0.00 | 0.23 | 0.00 | 78 | 1007.5 |
| 20260901080217 | 5 | 319 | 6.4 | 16.1 | 0.00 | 0.23 | 0.00 | 78 | 1007.2 |
| 20260901074500 | 5 | 29 | 4.8 | 24.1 | 0.00 | 0.30 | 0.23 | 77 | 1007.2 |
| 20260901073047 | 5 | 326 | 3.2 | 12.9 | 0.00 | 0.30 | 0.23 | 78 | 1007.2 |
| 20260901071504 | 5 | 341 | 4.8 | 16.1 | 0.00 | 0.30 | 0.23 | 78 | 1007.1 |
| 20260901064550 | 5 | 321 | 4.8 | 14.5 | 0.00 | 0.36 | 0.23 | 77 | 1006.9 |
| 20260901063103 | 5 | 316 | 4.8 | 12.9 | 0.00 | 0.36 | 0.23 | 76 | 1006.7 |
| 20260901061602 | 5 | 53 | 4.8 | 11.3 | 0.00 | 0.36 | 0.23 | 76 | 1006.6 |
| 20260901060046 | 6 | 345 | 4.8 | 16.1 | 0.00 | 0.36 | 0.23 | 76 | 1006.3 |
| 20260901054607 | 6 | 31 | 4.8 | 20.9 | 0.00 | 0.36 | 0.23 | 76 | 1006.1 |
| 20260901053055 | 6 | 325 | 6.4 | 19.3 | 0.00 | 0.36 | 0.23 | 76 | 1006.1 |
| 20260901051549 | 7 | 13 | 6.4 | 16.1 | 0.00 | 0.36 | 0.23 | 76 | 1006.0 |
| 20260901050002 | 7 | 340 | 4.8 | 14.5 | 0.00 | 0.36 | 0.23 | 76 | 1006.0 |
| 20260901044612 | 7 | 23 | 3.2 | 11.3 | 0.00 | 0.36 | 0.23 | 75 | 1005.8 |
| 20260901043047 | 7 | 10 | 3.2 | 9.7 | 0.00 | 0.36 | 0.23 | 74 | 1005.6 |
| 20260901041502 | 7 | 60 | 3.2 | 12.9 | 0.00 | 0.36 | 0.23 | 73 | 1005.3 |
| 20260901040100 | 8 | 38 | 4.8 | 14.5 | 0.00 | 0.36 | 0.23 | 73 | 1005.1 |
| 20260901034548 | 8 | 323 | 3.2 | 19.3 | 0.00 | 0.36 | 0.23 | 72 | 1005.0 |
| 20260901033059 | 8 | 12 | 4.8 | 22.5 | 0.00 | 0.36 | 0.23 | 71 | 1004.7 |
| 20260901031558 | 8 | 32 | 9.7 | 19.3 | 0.00 | 0.36 | 0.23 | 69 | 1004.5 |
| 20260901030049 | 9 | 335 | 4.8 | 17.7 | 0.00 | 0.36 | 0.23 | 68 | 1004.1 |
| 20260901024502 | 9 | 25 | 8.0 | 22.5 | 0.00 | 0.36 | 0.23 | 67 | 1003.7 |
| 20260901023055 | 9 | 315 | 8.0 | 20.9 | 0.00 | 0.36 | 0.23 | 67 | 1003.4 |
| 20260901021605 | 10 | 64 | 9.7 | 24.1 | 0.00 | 0.36 | 0.23 | 66 | 1003.2 |
| 20260901020100 | 10 | 41 | 12.9 | 22.5 | 0.00 | 0.36 | 0.23 | 64 | 1002.8 |
| 20260901014557 | 10 | 41 | 8.0 | 24.1 | 0.00 | 0.36 | 0.23 | 65 | 1002.5 |
| 20260901013051 | 10 | 63 | 8.0 | 24.1 | 0.00 | 0.36 | 0.23 | 64 | 1002.1 |
| 20260901011501 | 10 | 49 | 8.0 | 27.4 | 0.00 | 0.36 | 0.23 | 65 | 1001.8 |
| 20260901010158 | 10 | 15 | 14.5 | 35.4 | 0.00 | 0.36 | 0.23 | 64 | 1001.5 |
| 20260901004549 | 10 | 26 | 6.4 | 24.1 | 0.00 | 0.36 | 0.23 | 66 | 1001.4 |
| 20260901003042 | 10 | 44 | 11.3 | 25.7 | 0.00 | 0.36 | 0.23 | 66 | 1001.1 |
| 20260901001604 | 10 | 41 | 8.0 | 29.0 | 0.00 | 0.36 | 0.23 | 68 | 1000.8 |
| 20260901000051 | 10 | 63 | 11.3 | 32.2 | 0.00 | 0.36 | 0.23 | 67 | 1000.4 |
| 20260831234547 | 10 | 51 | 16.1 | 32.2 | 0.00 | 0.36 | 0.23 | 67 | 1000.2 |
| 20260831233054 | 10 | 58 | 11.3 | 29.0 | 0.00 | 0.36 | 0.23 | 72 | 1000.1 |
| 20260831231602 | 9 | 31 | 16.1 | 33.8 | 0.00 | 0.36 | 0.23 | 72 | 999.8 |
| 20260831230051 | 9 | 25 | 11.3 | 37.0 | 0.00 | 0.36 | 0.23 | 73 | 999.6 |
| 20260831224629 | 9 | 62 | 16.1 | 40.2 | 0.00 | 0.36 | 0.23 | 73 | 999.3 |
| 20260831223051 | 10 | 65 | 16.1 | 35.4 | 0.00 | 0.36 | 0.23 | 74 | 999.2 |
| 20260831221553 | 10 | 11 | 11.3 | 24.1 | 0.00 | 0.36 | 0.23 | 79 | 999.1 |
| 20260831220059 | 10 | 15 | 8.0 | 24.1 | 0.00 | 0.36 | 0.23 | 79 | 999.0 |
| 20260831214554 | 10 | 37 | 8.0 | 24.1 | 0.00 | 0.36 | 0.23 | 81 | 999.1 |
| 20260831213049 | 9 | 9 | 9.7 | 19.3 | 0.00 | 0.36 | 0.23 | 82 | 999.0 |
| 20260831211608 | 8 | 358 | 6.4 | 20.9 | 0.00 | 0.36 | 0.23 | 85 | 999.2 |
| 20260831204547 | 8 | 321 | 3.2 | 17.7 | 0.00 | 0.36 | 0.23 | 92 | 999.2 |
| 20260831203059 | 7 | 323 | 4.8 | 14.5 | 0.00 | 0.36 | 0.23 | 93 | 999.2 |
| 20260831201558 | 7 | 300 | 6.4 | 12.9 | 0.00 | 0.36 | 0.23 | 94 | 999.4 |
| 20260831200049 | 6 | 342 | 6.4 | 17.7 | 0.00 | 0.36 | 0.23 | 93 | 999.6 |
| 20260831194612 | 6 | 333 | 1.6 | 9.7 | 0.00 | 0.36 | 0.23 | 94 | 999.7 |
| 20260831193059 | 6 | 324 | 3.2 | 12.9 | 0.00 | 0.36 | 0.23 | 94 | 1000.0 |
| 20260831191551 | 6 | 297 | 1.6 | 9.7 | 0.00 | 0.36 | 0.23 | 95 | 1000.1 |
| 20260831190003 | 6 | 333 | 1.6 | 6.4 | 0.00 | 0.36 | 0.23 | 96 | 1000.4 |
| 20260831184556 | 5 | 304 | 0.0 | 4.8 | 0.00 | 0.36 | 0.23 | 95 | 1000.5 |
| 20260831183046 | 5 | 326 | 1.6 | 4.8 | 0.00 | 0.36 | 0.23 | 95 | 1000.5 |
| 20260831181546 | 5 | 354 | 0.0 | 3.2 | 0.00 | 0.36 | 0.23 | 96 | 1000.8 |
| 20260831180055 | 5 | 10 | 0.0 | 6.4 | 0.00 | 0.36 | 0.23 | 96 | 1000.9 |
| 20260831174550 | 5 | 324 | 0.0 | 4.8 | 0.00 | 0.36 | 0.23 | 96 | 1001.2 |
| 20260831173047 | 5 | 25 | 0.0 | 3.2 | 0.00 | 0.36 | 0.23 | 96 | 1001.4 |
| 20260831171557 | 5 | 341 | 0.0 | 3.2 | 0.00 | 0.36 | 0.23 | 97 | 1001.5 |
| 20260831170050 | 5 | 134 | 0.0 | 1.6 | 0.00 | 0.36 | 0.23 | 97 | 1001.6 |
| 20260831164546 | 5 | 134 | 0.0 | 0.0 | 0.00 | 0.36 | 0.23 | 98 | 1001.6 |
| 20260831163059 | 5 | 134 | 0.0 | 1.6 | 0.00 | 0.36 | 0.23 | 98 | 1001.7 |
| 20260831161551 | 4 | 135 | 0.0 | 0.0 | 0.00 | 0.36 | 0.23 | 98 | 1002.0 |
| 20260831160047 | 4 | 150 | 0.0 | 0.0 | 0.00 | 0.36 | 0.23 | 98 | 1002.2 |
| 20260831154606 | 3 | 151 | 0.0 | 0.0 | 0.00 | 0.36 | 0.23 | 98 | 1002.3 |
| 20260831153041 | 3 | 151 | 0.0 | 0.0 | 0.00 | 0.36 | 0.23 | 98 | 1002.6 |
| 20260831151611 | 3 | 151 | 0.0 | 0.0 | 0.00 | 0.36 | 0.23 | 98 | 1002.7 |
| 20260831150049 | 3 | 151 | 0.0 | 0.0 | 0.00 | 0.36 | 0.23 | 97 | 1002.9 |
| 20260831144546 | 3 | 151 | 0.0 | 0.0 | 0.00 | 0.36 | 0.23 | 97 | 1003.1 |
| 20260831143113 | 3 | 151 | 0.0 | 0.0 | 0.00 | 0.36 | 0.23 | 96 | 1003.2 |
| 20260831141550 | 4 | 151 | 0.0 | 0.0 | 0.00 | 0.36 | 0.23 | 97 | 1003.4 |
| 20260831140001 | 4 | 150 | 0.0 | 0.0 | 0.00 | 0.36 | 0.23 | 97 | 1003.6 |
| 20260831134559 | 4 | 150 | 0.0 | 0.0 | 0.00 | 0.36 | 0.23 | 97 | 1003.9 |
| 20260831133046 | 5 | 169 | 0.0 | 3.2 | 0.00 | 0.36 | 0.23 | 97 | 1004.1 |
| 20260831131502 | 5 | 141 | 0.0 | 1.6 | 0.03 | 0.36 | 0.23 | 97 | 1004.3 |
| 20260831130106 | 5 | 164 | 0.0 | 3.2 | 0.03 | 0.36 | 0.23 | 96 | 1004.5 |
| 20260831124558 | 5 | 129 | 0.0 | 3.2 | 0.03 | 0.36 | 0.23 | 96 | 1004.6 |
| 20260831123041 | 5 | 143 | 0.0 | 4.8 | 0.05 | 0.36 | 0.23 | 96 | 1004.8 |
| 20260831121607 | 5 | 147 | 1.6 | 4.8 | 0.03 | 0.33 | 0.20 | 96 | 1005.0 |
| 20260831120050 | 5 | 169 | 1.6 | 3.2 | 0.05 | 0.33 | 0.20 | 96 | 1005.2 |